Location: Jackson Park
(37.2862°N, 79.9123°W)
Time: 14:48:07
(UTC+00:00)

Vanguard 1 Rocket - Pass Details

Date: 17 May 2026
Orbit: 656 x 4211 km, 34.3° (Epoch: 8 June)

Event Time Altitude Azimuth Distance (km) Brightness Sun altitude
Rises 21:57:21 0° 267° (W) 4,450 12.2 27.1°
Reaches altitude 10° 21:59:42 10° 266° (W) 3,775 12.3 26.6°
Maximum altitude 22:10:11 79° 182° (S) 2,474 10.0 24.5°
Drops below altitude 10° 22:31:08 10° 100° (E) 6,913 11.3 20.4°
Sets 22:37:19 0° 100° (E) 8,239 11.6 19.2°
